User: anonymous   Login
Location: Fort Wayne
(41.1310°N, 85.1290°W)
Time: 03:20:03
(UTC-04:00)
Language:

Gbstr 26 Del rocket - Orbit

View from above orbital plane
View from above orbital plane
View from above satellite
View from above satellite

Ground track
Ground track

The orbit data is extracted from the following two-line orbital elements,

1 25876U 99041E   16241.90867706  .00000024  00000-0  43667-4 0  9994
2 25876  51.7690  29.8344 0531812 256.3047  97.8156 14.03856725873550
Epoch (UTC): 28 August 2016 21:48:29
Eccentricity: 0.0531812
inclination: 51.7690°
perigee height: 494 km
apogee height: 1266 km
right ascension of ascending node: 29.8344°
argument of perigee: 256.3047°
revolutions per day: 14.03856725
mean anomaly at epoch: 97.8156°
orbit number at epoch: 87355

The dashed part of the orbit path shows where the satellite is in the earth's shadow,  

DLR